Temp
-6 -7 -6 -6 -6 -5 -5 -5 -5 -5 -5 -5 -4 -4 -5 -5 -5 -5 -4 -4 -5 -5 -5 -5 -4 -5 -5 -5 -5 -5 -5 -5 -5
-5 -5 -6 -6 -6 -6 -6 -5 -5 -5 -5 -5 -5 -5 -5 -5 -5 -5 -5 -5 -4 -4 -5 -5 -5 -5 -5 -5 -5 -5 -5 -5 -5
-4 -5 -6 -7 -7 -6 -6 -6 -6 -5 -5 -5 -5 -5 -5 -5 -4 -5 -5 -5 -5 -4 -5 -5 -5 -5 -5 -5 -6 -5 -5 -6 -6
-6 -7 -6 -7 -7 -7 -7 -7 -6 -6 -5 -5 -5 -5 -5 -5 -4 -5 -5 -5 -5 -5 -5 -5 -5 -5 -5 -5 -6 -6 -5 -5 -6
-7 -6 -8 -8 -7 -7 -7 -7 -6 -6 -6 -5 -5 -5 -5 -5 -5 -4 -5 -5 -5 -5 -5 -5 -5 -5 -5 -5 -6 -6 -6 -6 -6
-7 -8 -9 -8 -8 -8 -7 -7 -7 -7 -6 -6 -6 -5 -5 -5 -5 -5 -5 -5 -5 -5 -5 -5 -5 -5 -5 -6 -5 -5 -5 -6 -6
-7 -8 -8 -8 -8 -8 -7 -7 -7 -7 -7 -7 -6 -6 -6 -5 -5 -5 -5 -5 -5 -5 -5 -5 -5 -5 -5 -5 -5 -5 -5 -6 -6
-7 -9 -9 -8 -8 -8 -8 -7 -7 -8 -7 -7 -7 -6 -6 -6 -5 -5 -5 -5 -5 -5 -5 -5 -5 -5 -5 -5 -5 -5 -5 -5 -6
-8 -7 -7 -7 -7 -8 -8 -8 -7 -7 -7 -7 -7 -7 -6 -6 -6 -5 -5 -5 -5 -5 -5 -5 -5 -5 -5 -5 -5 -5 -5 -5 -5
-7 -7 -7 -7 -7 -7 -8 -8 -7 -7 -7 -7 -7 -7 -6 -6 -6 -6 -5 -5 -5 -5 -4 -5 -5 -5 -5 -5 -5 -5 -5 -5 -5
-7 -7 -7 -7 -7 -7 -8 -8 -7 -7 -7 -7 -8 -8 -7 -6 -6 -6 -6 -5 -5 -5 -5 -4 -5 -5 -5 -5 -5 -5 -5 -5 -4
-8 -8 -8 -8 -7 -8 -8 -8 -7 -7 -7 -7 -7 -8 -7 -7 -6 -6 -6 -5 -5 -5 -5 -5 -5 -5 -5 -5 -5 -5 -5 -4 -4
-9 -8 -8 -8 -8 -8 -8 -8 -7 -8 -7 -7 -7 -7 -7 -7 -7 -6 -6 -6 -6 -5 -5 -5 -5 -5 -5 -5 -5 -5 -5 -5 -4
-10 -8 -8 -8 -8 -8 -8 -8 -7 -7 -8 -8 -8 -8 -8 -8 -7 -8 -7 -6 -6 -6 -5 -5 -5 -5 -5 -5 -5 -5 -5 -5 -5
-10 -9 -8 -8 -8 -8 -8 -8 -7 -7 -8 -8 -8 -8 -8 -8 -8 -8 -8 -6 -6 -6 -5 -5 -5 -5 -6 -5 -5 -6 -6 -5 -6
-10 -10 -9 -8 -8 -8 -8 -7 -8 -7 -8 -8 -8 -8 -8 -8 -8 -8 -8 -7 -6 -6 -6 -6 -6 -6 -6 -6 -6 -6 -6 -6 -6
-10 -10 -9 -9 -8 -8 -7 -7 -7 -7 -7 -7 -8 -8 -8 -8 -7 -8 -7 -7 -6 -6 -6 -6 -6 -6 -6 -6 -6 -7 -6 -7 -7
-10 -10 -10 -9 -8 -8 -7 -6 -6 -6 -7 -7 -7 -8 -8 -8 -7 -7 -7 -7 -7 -7 -7 -6 -6 -6 -7 -7 -7 -7 -7 -7 -7
-10 -11 -10 -9 -9 -8 -7 -7 -6 -6 -7 -7 -7 -7 -8 -8 -8 -7 -7 -7 -7 -7 -7 -7 -7 -7 -8 -8 -7 -7 -7 -7 -7
-10 -10 -10 -10 -9 -8 -8 -7 -7 -7 -6 -7 -7 -7 -8 -8 -8 -8 -8 -8 -7 -7 -8 -8 -8 -8 -8 -8 -8 -8 -8 -8 -8
Height
5881 5884 5888 5892 5897 5898 5901 5903 5906 5911 5916 5920 5924 5927 5930 5932 5935 5938 5941 5943 5947 5949 5952 5954 5955 5956 5957 5959 5961 5960 5960 5961 5962
5869 5877 5882 5888 5892 5895 5897 5899 5903 5906 5910 5915 5920 5924 5927 5930 5933 5936 5940 5942 5944 5947 5951 5953 5954 5955 5956 5958 5960 5961 5962 5963 5963
5871 5863 5874 5882 5888 5891 5894 5896 5898 5902 5906 5911 5915 5918 5923 5926 5930 5933 5936 5939 5943 5945 5949 5951 5953 5955 5956 5958 5960 5962 5963 5964 5965
5869 5863 5867 5877 5883 5888 5890 5891 5894 5897 5901 5905 5910 5915 5920 5923 5927 5931 5934 5936 5940 5943 5946 5950 5952 5953 5955 5957 5959 5961 5962 5963 5964
5858 5864 5868 5873 5878 5882 5885 5888 5891 5894 5897 5900 5904 5910 5914 5920 5923 5927 5931 5935 5938 5940 5944 5947 5949 5951 5953 5955 5957 5959 5960 5961 5962
5849 5857 5863 5867 5873 5875 5881 5884 5887 5890 5893 5896 5899 5904 5908 5913 5919 5924 5929 5932 5935 5938 5942 5944 5946 5949 5951 5953 5955 5957 5958 5959 5959
5842 5849 5855 5862 5865 5868 5876 5879 5883 5886 5889 5891 5894 5898 5903 5909 5915 5920 5925 5928 5931 5935 5939 5942 5944 5947 5948 5950 5953 5955 5956 5957 5957
5830 5836 5844 5852 5859 5859 5868 5874 5878 5881 5884 5888 5891 5895 5900 5906 5911 5914 5918 5922 5927 5931 5935 5938 5940 5943 5945 5948 5951 5953 5953 5954 5954
5815 5823 5831 5837 5843 5852 5860 5866 5872 5877 5881 5885 5887 5892 5896 5900 5904 5908 5913 5917 5922 5926 5930 5933 5936 5939 5941 5944 5947 5949 5950 5950 5951
5802 5814 5818 5827 5836 5845 5852 5860 5866 5872 5876 5878 5882 5887 5890 5894 5898 5903 5907 5912 5915 5921 5925 5928 5931 5934 5937 5940 5942 5945 5946 5947 5948
5800 5807 5813 5822 5829 5838 5846 5854 5858 5864 5868 5874 5878 5882 5885 5889 5893 5897 5901 5906 5911 5915 5919 5923 5926 5928 5931 5934 5938 5940 5941 5943 5945
5785 5794 5802 5811 5819 5828 5837 5843 5852 5857 5863 5868 5872 5877 5881 5884 5887 5892 5895 5900 5905 5908 5912 5916 5921 5923 5926 5929 5932 5935 5937 5938 5940
5776 5785 5792 5800 5809 5818 5827 5837 5844 5849 5856 5862 5867 5873 5877 5878 5881 5885 5889 5894 5898 5901 5905 5909 5912 5915 5920 5923 5926 5929 5932 5934 5936
5767 5777 5785 5791 5799 5809 5819 5828 5835 5842 5848 5854 5864 5866 5869 5873 5877 5879 5881 5885 5889 5894 5898 5902 5907 5911 5914 5917 5920 5923 5926 5929 5931
5760 5769 5777 5783 5790 5798 5810 5818 5825 5834 5839 5850 5852 5858 5862 5867 5870 5873 5875 5878 5882 5887 5891 5895 5899 5903 5906 5910 5913 5917 5920 5923 5925
5753 5759 5766 5774 5780 5788 5795 5804 5812 5823 5831 5834 5843 5850 5854 5859 5862 5866 5868 5871 5875 5879 5883 5887 5891 5895 5899 5902 5905 5909 5912 5915 5918
5744 5749 5757 5764 5770 5777 5785 5794 5802 5809 5817 5825 5833 5841 5845 5850 5854 5860 5863 5865 5868 5872 5876 5880 5884 5888 5892 5895 5898 5902 5905 5909 5912
5734 5739 5747 5755 5761 5767 5775 5784 5791 5799 5809 5817 5824 5832 5837 5842 5848 5853 5856 5859 5861 5865 5868 5872 5876 5880 5883 5888 5892 5895 5898 5901 5905
5724 5730 5738 5746 5752 5759 5766 5772 5780 5789 5797 5804 5813 5821 5828 5834 5839 5845 5848 5852 5855 5857 5861 5866 5869 5871 5875 5877 5882 5887 5890 5893 5896
5716 5722 5728 5737 5744 5750 5758 5764 5770 5778 5786 5794 5802 5809 5818 5825 5830 5836 5840 5845 5847 5849 5854 5858 5862 5865 5868 5871 5878 5880 5882 5886 5888
Wind_Speed
37 34 32 28 23 21 20 21 26 30 31 31 30 27 25 25 22 21 21 20 18 16 14 13 12 10 9 7 5 4 2 3 4
36 38 37 32 27 26 22 22 24 27 34 35 32 31 29 28 26 23 21 20 20 19 17 16 15 12 9 6 6 6 4 4 4
42 47 38 39 32 28 23 23 24 25 30 35 36 35 34 31 29 26 25 23 23 21 20 19 17 14 12 9 8 6 4 3 2
47 33 38 41 34 30 28 28 27 27 28 34 38 37 35 34 32 29 28 26 24 23 22 22 20 18 15 13 10 8 7 7 6
50 49 42 42 39 34 34 30 29 26 27 28 36 38 37 35 36 34 31 27 25 25 24 25 24 22 19 17 14 12 11 11 11
50 52 45 45 44 42 36 34 32 27 26 25 31 39 39 38 36 35 32 29 28 26 25 25 26 24 22 20 17 15 14 14 15
46 55 57 45 50 47 41 40 35 30 26 27 28 35 39 38 35 34 33 33 31 26 25 25 26 26 25 23 19 17 15 16 17
53 53 54 53 47 53 47 43 40 35 33 28 27 29 34 33 34 35 35 34 33 29 26 25 28 28 27 24 19 17 17 17 17
51 60 64 66 65 56 50 48 43 38 34 28 25 28 30 33 34 36 35 35 34 33 30 28 29 28 28 25 22 18 18 18 16
54 56 64 61 58 58 55 52 47 42 36 33 29 23 30 33 35 34 35 36 36 35 33 33 30 30 29 27 24 20 19 19 16
48 45 55 56 59 59 59 53 50 46 40 35 30 27 25 29 32 34 35 35 34 36 37 35 33 32 31 29 25 22 19 19 16
54 46 48 57 60 61 60 60 50 48 43 37 34 31 26 25 28 30 32 32 32 33 35 36 33 34 32 29 27 24 21 20 17
55 54 48 52 59 60 62 60 54 51 47 41 35 30 27 23 21 28 30 30 31 33 34 33 34 34 32 31 29 27 22 21 18
52 51 54 48 54 60 63 61 57 54 52 46 33 36 33 29 24 21 28 31 33 35 35 36 33 32 31 32 30 28 24 23 21
51 51 47 50 53 54 59 62 62 56 55 46 43 42 38 32 32 25 26 32 32 33 34 33 32 33 32 31 30 27 24 23 22
53 50 51 47 49 52 57 62 65 60 58 58 49 45 42 37 39 32 28 31 34 33 33 34 33 34 32 31 30 27 24 23 24
49 49 49 47 47 51 56 59 64 65 65 60 58 51 50 47 43 35 30 28 34 32 32 33 33 34 32 31 29 27 25 25 25
49 47 47 45 45 48 53 55 57 58 57 58 57 55 56 53 48 39 33 28 33 34 34 34 34 34 34 32 30 30 31 31 31
50 46 44 45 45 48 50 52 54 52 55 56 58 57 58 56 53 42 35 33 31 35 35 35 36 36 35 36 37 36 36 36 34
48 47 46 47 47 47 45 48 47 47 54 55 57 61 59 59 54 43 39 36 34 32 36 37 38 39 38 38 33 37 37 34 34
Wind_Direction
238 233 234 236 235 239 253 249 225 218 216 218 214 209 212 211 206 202 203 199 197 195 187 183 184 182 175 170 168 196 169 147 143
229 244 234 234 234 239 254 246 232 223 214 218 218 214 213 216 212 205 209 207 203 202 195 193 196 194 190 182 162 160 161 144 128
224 218 229 232 232 241 246 246 242 230 222 221 219 216 215 217 218 210 209 210 207 204 201 202 202 202 201 196 188 181 197 217 207
228 235 240 229 233 239 240 246 241 234 230 224 222 223 219 219 220 216 217 211 209 208 205 205 205 206 207 205 208 214 227 244 248
226 230 231 226 232 238 241 246 244 239 237 235 223 221 223 223 223 219 219 217 216 214 209 209 210 207 208 209 216 229 239 253 255
222 223 225 229 230 235 239 242 239 239 238 239 230 222 221 223 225 224 220 225 222 221 218 216 217 213 213 217 220 232 246 256 260
211 219 224 227 228 233 233 238 237 239 244 243 238 227 224 225 226 226 224 225 229 225 222 220 223 223 224 224 228 238 250 258 258
210 208 219 222 221 231 226 233 232 235 241 244 239 234 229 229 230 229 227 226 229 229 227 224 225 228 232 234 238 246 257 261 261
212 215 222 223 227 230 226 228 234 235 241 242 243 234 235 232 232 232 233 231 230 231 231 231 229 231 238 241 243 247 258 266 261
219 213 219 224 227 227 225 226 233 235 236 240 242 239 231 233 237 237 236 236 234 233 232 234 233 232 237 243 248 250 260 265 256
225 220 220 223 222 224 226 228 231 232 231 236 240 242 244 234 233 237 238 238 238 237 234 235 235 237 237 238 244 250 259 255 249
215 216 217 218 222 223 223 228 233 230 231 233 238 246 246 242 235 234 236 239 239 238 238 238 237 237 240 238 241 245 251 250 251
211 218 218 217 221 221 220 225 231 232 230 235 237 244 242 243 242 239 235 235 237 234 233 236 235 235 236 235 239 241 247 251 249
212 216 219 220 221 220 220 223 229 233 232 234 232 238 236 242 236 241 241 232 233 238 239 241 240 235 234 234 239 241 246 247 241
215 218 218 220 224 222 220 222 226 229 232 228 229 236 237 238 242 241 250 234 232 236 240 243 238 231 233 237 239 240 244 243 232
217 220 221 222 224 225 221 220 224 225 228 227 228 232 241 237 241 240 250 239 229 232 236 238 235 232 234 235 236 237 235 231 225
215 218 222 222 223 223 224 225 225 227 227 231 231 231 237 237 241 239 248 247 234 229 231 232 232 232 232 233 235 234 229 222 217
210 216 220 219 221 222 224 227 228 226 226 228 229 230 234 234 238 238 245 245 234 229 230 228 227 228 228 229 229 228 227 225 224
209 215 216 215 217 222 221 225 225 226 222 223 224 227 227 229 235 238 241 239 237 232 233 232 228 225 226 228 231 230 230 233 232
210 216 217 214 213 215 212 214 216 220 216 219 222 226 223 226 231 233 236 240 241 238 234 229 225 225 221 224 229 232 233 235 234